Regional Weather Roundup
Issued by NWS Newport/Morehead, NC

Current Version | Previous Version | Graphics & Text | Print | Product List | Glossary On
Versions: 1 2 3 4 5 6 7 8 9 10 11 12 13 14 15 16 17 18 19 20 21 22 23 24 25 26 27 28 29 30 31 32 33 34 35 36 37 38 39 40 41 42 43 44 45 46 47 48 49 50
000 ASUS42 KMHX 262112 RWRMHX WEATHER ROUNDUP FOR EASTERN NORTH CAROLINA NATIONAL WEATHER SERVICE NEWPORT/MOREHEAD CITY NC 400 PM EST THU FEB 26 2015 NOTE: "FAIR" INDICATES FEW OR NO CLOUDS BELOW 12,000 FEET WITH NO SIGNIFICANT WEATHER AND/OR OBSTRUCTIONS TO VISIBILITY NCZ015>017-031-032-045>047-102-103-262200- NORTH COAST CITY SKY/WX TMP DP RH WIND PRES REMARKS EDENTON CLOUDY 34 32 94 N12 29.93R FOG ELIZABETH CITY NOT AVBL KITTY HAWK CLOUDY 33 33 100 N14G26 29.87R FOG MANTEO CLOUDY 34 32 93 NW14G23 29.89R $$ NCZ045>047-081-094-103-104-262200- CENTRAL COAST CITY SKY/WX TMP DP RH WIND PRES REMARKS FRISCO CLOUDY 35 34 96 N10G23 29.85R SWANQUARTER N/A 36 N/A N/A N6G14 29.88R $$ NCZ095-097-098-100-101-262200- SOUTHERN COAST CITY SKY/WX TMP DP RH WIND PRES REMARKS BEAUFORT CLOUDY 38 35 89 N15 29.90R CEDAR ISLAND N/A 36 N/A N/A NW23 29.91S JACKSONVILLE CLOUDY 37 32 82 N15 29.93R PINEY ISLAND N/A N/A N/A N/A MISG 29.90R WILMINGTON CLOUDY 39 34 82 N12 29.92R $$ NCZ011>013-027>030-043-044-078>080-089-090>093-098-262200- COASTAL PLAIN CITY SKY/WX TMP DP RH WIND PRES REMARKS AHOSKIE LGT RAIN 33 31 92 N6 29.96R CLINTON CLOUDY 37 33 87 N6 29.96R ELIZABETHTOWN CLOUDY 38 33 80 NW6 29.95R GOLDSBORO CLOUDY 36 36 98 N8 29.94R GREENVILLE PTSUNNY 34 32 93 N5 29.97R HAVELOCK CLOUDY 37 33 85 N13 29.92R KENANSVILLE CLOUDY 36 32 85 N9 29.96R KINSTON CLOUDY 36 34 93 N7 29.96R FOG NEW BERN CLOUDY 37 32 82 N9 29.93R RICHLANDS CLOUDY 37 30 75 N7 29.94R ROCKY MOUNT CLOUDY 36 32 85 N6 29.96R WASHINGTON CLOUDY 35 33 92 N9 29.94R FOG WHITEVILLE CLOUDY 38 33 81 NW6 29.95R $$ AMZ130-135-150-152-154-156-158-170-250-252-270-ANZ085-086-088-633-658-670-262200- MARINE OBSERVATIONS STATION/POSITION TIME TEMP WIND PRES WAVE SWELL AIR SEA DIR/SP/G HT/PER HT/PER (UTC) (F) (DEG/KT/KT) (MB) (FT/S) (FT/S) CHESAPEAKE LIGHT 2000 32 10/ 28/ 32 1011.7 64 E VA BEACH 2050 46 57 10/ 25/ 31 1008.4 16/ 9 13/ 9 DUCK 2000 33 35 350/ 27/ 29 1009.0 2 E DUCK 2011 35 N/A 10/ 8 3/11 10 NE DUCK 2022 37 N/A 12/ 8 3/11 OREGON INLET 2000 36 37 330/ 14/ 22 1009.3 HATTERAS CG 2000 36 41 350/ 22/ 25 1009.8 CAPE LOOKOUT 2100 37 340/ 15/ 19 1012.2 BEAUFORT LAB 2000 38 40 360/ 12/ 17 1010.5 27 SE WRIGHTSVLE NOT AVBL 5 SE WRIGHTSVLE NOT AVBL 225 S CAPE HAT 2050 67 70 290/ 21/ 25 1008.9 15/11 11/11 41 SE CHARLESTON 2050 45 66 350/ 12/ 16 1013.0 6/ 8 5/ 8 $$

USA.gov is the U.S. government's official web portal to all federal, state and local government web resources and services.